Location: Lone Wolf Observatory
(41.0360°N, 89.2260°W)
Time: 13:04:31
(UTC-06:00)

Amateur Radio Satellites - All Passes

Search period start: 21 November 2014 12:34
Search period end: 22 November 2014 12:34
Location: Lone Wolf Observatory, 41.0360°N, 89.2260°W

Satellite Date Start Highest point End Downlink Frequencies (MHz)
Time Altitude Azimuth
Oscar 19 21 Nov 12:53:24 12:58:29 70° 258° (WSW) 13:03:36 437.125/150
SO-50 21 Nov 12:56:29 13:01:04 40° 50° (NE) 13:05:40 436.795
SPROUT 21 Nov 13:06:35 13:10:14 28° 291° (WNW) 13:13:51 437.525
ITUPSAT 1 21 Nov 13:11:53 13:16:35 50° 100° (E) 13:21:14 437.325
TISAT 1 21 Nov 13:13:22 13:16:32 21° 293° (WNW) 13:19:40 437.305
SWISSCUBE 21 Nov 13:24:50 13:29:40 76° 103° (ESE) 13:34:27 437.505
CUSAT 1 21 Nov 13:25:33 13:28:34 87° 99° (E) 13:31:14 437.405
DANDE 21 Nov 13:28:37 13:31:48 73° 99° (E) 13:34:31 436.750
ITAMSAT 1 21 Nov 13:34:47 13:40:00 73° 257° (WSW) 13:45:14 435.822/435.867
Gurwin Techsat 1B 21 Nov 13:36:50 13:42:05 67° 73° (ENE) 13:47:22 435.225
AUBIESAT-1 21 Nov 13:41:02 13:45:53 62° 291° (WNW) 13:50:41 437.475
STARS 21 Nov 13:41:27 13:43:45 14° 92° (E) 13:46:02 437.465
M-CUBED/EXP-1 PRIME 21 Nov 13:42:36 13:47:24 55° 292° (WNW) 13:52:12 437.505
AO-7 21 Nov 13:43:11 13:49:46 27° 55° (NE) 13:56:22 29.400- 29.500
BEESAT 21 Nov 13:57:12 14:01:54 55° 288° (WNW) 14:06:34 436.000
KKS-1 21 Nov 14:09:43 14:13:57 42° 99° (E) 14:18:09 437.445
YUBILEINY 21 Nov 14:21:22 14:30:06 80° 265° (W) 14:38:45 435.215
HORYU 2 21 Nov 14:22:00 14:26:26 85° 76° (ENE) 14:30:53 437.375
SO-50 21 Nov 14:37:23 14:41:27 27° 247° (WSW) 14:45:32 436.795
ITUPSAT 1 21 Nov 14:50:48 14:54:04 19° 296° (WNW) 14:57:20 437.325
JAS-2 21 Nov 14:55:45 15:01:26 24° 58° (ENE) 15:07:18 435.910
SWISSCUBE 21 Nov 15:04:47 15:06:53 13° 300° (WNW) 15:08:58 437.505
STARS 21 Nov 15:16:16 15:20:33 52° 287° (WNW) 15:24:48 437.465
Gurwin Techsat 1B 21 Nov 15:19:34 15:22:31 15° 270° (W) 15:25:29 435.225
AO-7 21 Nov 15:33:34 15:41:49 72° 254° (WSW) 15:50:09 29.400- 29.500
PHONESAT 2.4 21 Nov 15:46:12 15:48:28 16° 148° (SSE) 15:50:46 2401.200-2431.200
KKS-1 21 Nov 15:47:14 15:50:17 19° 295° (WNW) 15:53:19 437.445
RS-15 21 Nov 16:01:43 16:12:02 49° 111° (ESE) 16:22:17 29.354- 29.394
O/OREOS (USA 219) 21 Nov 16:07:50 16:12:07 44° 63° (ENE) 16:16:23 437.305
MOZHAYETS 4 21 Nov 16:14:56 16:18:52 26° 95° (E) 16:22:46
VERMONT LUNAR 21 Nov 16:16:32 16:19:46 30° 155° (SSE) 16:22:59 437.305
MaSat-1 21 Nov 16:16:48 16:19:54 58° 297° (WNW) 16:22:42 437.345
CUTE-I 21 Nov 16:18:40 16:22:45 23° 64° (ENE) 16:26:49 437.470
YUBILEINY 21 Nov 16:21:07 16:25:22 15° 285° (WNW) 16:29:37 435.215
JAS-2 21 Nov 16:38:07 16:45:32 79° 257° (WSW) 16:53:28 435.910
Cubesat XI-IV 21 Nov 17:14:11 17:19:31 71° 74° (ENE) 17:24:53 437.490
PHONESAT 2.4 21 Nov 17:23:11 17:26:48 51° 163° (SSE) 17:30:26 2401.200-2431.200
AO-7 21 Nov 17:32:46 17:35:57 13° 273° (W) 17:39:09 29.400- 29.500
PRISM 21 Nov 17:39:00 17:42:58 37° 98° (E) 17:46:53 437.425
CUBESAT XI-V 21 Nov 17:42:56 17:45:50 16° 91° (E) 17:48:42 437.345
O/OREOS (USA 219) 21 Nov 17:48:15 17:51:08 17° 260° (W) 17:54:01 437.305
STRAND 1 21 Nov 17:51:55 17:55:38 20° 93° (E) 17:59:19 437.568
MOZHAYETS 4 21 Nov 17:51:59 17:56:04 31° 291° (WNW) 18:00:09
VERMONT LUNAR 21 Nov 17:54:24 17:58:02 76° 172° (S) 18:01:40 437.305
CUTE-I 21 Nov 17:57:17 18:02:28 49° 260° (W) 18:07:40 437.470
RS-15 21 Nov 18:13:46 18:24:19 51° 314° (NW) 18:34:58 29.354- 29.394
GONETS M04 21 Nov 18:14:54 18:21:48 25° 65° (ENE) 18:28:37
JAS-2 21 Nov 18:27:49 18:31:43 15° 276° (W) 18:35:43 435.910
Cubesat XI-IV 21 Nov 18:57:14 19:00:06 15° 270° (W) 19:02:59 437.490
PHONESAT 2.4 21 Nov 19:01:48 19:05:32 85° 181° (S) 19:09:16 2401.200-2431.200
CUTE 1.7 & AOD 2 21 Nov 19:04:11 19:06:53 17° 65° (ENE) 19:09:35 437.475
PRISM 21 Nov 19:15:13 19:18:15 19° 294° (WNW) 19:21:16 437.425
CUBESAT XI-V 21 Nov 19:19:02 19:23:34 50° 287° (WNW) 19:28:03 437.345
HO-68 21 Nov 19:20:19 19:27:09 49° 66° (ENE) 19:34:00 435.675
DOVE 4 21 Nov 19:25:52 19:28:52 17° 66° (ENE) 19:31:46 437.250
Oscar 11 21 Nov 19:27:04 19:27:27 10° 61° (ENE) 19:27:50 145.826/435.025
STRAND 1 21 Nov 19:30:09 19:35:04 48° 289° (WNW) 19:39:56 437.568
VERMONT LUNAR 21 Nov 19:32:53 19:36:31 75° 189° (S) 19:40:09 437.305
DX 1 21 Nov 19:40:24 19:42:52 15° 63° (ENE) 19:45:21 434.975-435.025
SHINDAISAT 21 Nov 19:41:31 19:43:21 40° 56° (NE) 19:45:10 437.305
SEEDS 21 Nov 19:42:07 19:45:58 37° 71° (ENE) 19:49:50 437.485
GOMX 1 21 Nov 19:43:55 19:48:21 35° 71° (ENE) 19:52:32 467.674
BRITE-PL 21 Nov 19:47:12 19:52:15 52° 73° (ENE) 19:56:56 437.365/2234.400
AIST 1 21 Nov 19:58:18 20:02:39 71° 96° (E) 20:07:04
BEESAT 3 21 Nov 19:59:48 20:01:46 13° 108° (ESE) 20:03:46 437.485
CANX-2 21 Nov 20:02:52 20:07:04 82° 76° (ENE) 20:11:19 2200.000
ZACube-1 21 Nov 20:05:36 20:07:01 12° 63° (ENE) 20:08:25 437.345
AAUSAT CUBESAT 2 21 Nov 20:08:35 20:12:38 55° 74° (ENE) 20:16:43 437.432
BEESAT 2 21 Nov 20:10:36 20:13:08 16° 110° (ESE) 20:15:41 435.950
GONETS M04 21 Nov 20:10:41 20:19:31 74° 266° (W) 20:28:14
AISAT 21 Nov 20:13:32 20:14:32 11° 60° (ENE) 20:15:31 437.250
COMPASS 1 21 Nov 20:20:21 20:24:31 86° 78° (ENE) 20:28:43 437.405
PCSat 21 Nov 20:23:41 20:29:02 69° 116° (ESE) 20:34:27 145.827
AIST 2 21 Nov 20:25:04 20:26:16 11° 107° (ESE) 20:27:29 435.215
HUMSAT D 21 Nov 20:25:19 20:26:35 11° 63° (ENE) 20:27:51 437.325/437.525
RS-15 21 Nov 20:32:12 20:40:10 22° 345° (NNW) 20:48:16 29.354- 29.394
CINEMA 3 21 Nov 20:36:01 20:40:24 53° 74° (ENE) 20:44:37 145.822/145.860
DELFI C3 21 Nov 20:38:12 20:42:08 50° 73° (ENE) 20:46:06 145.870
CUTE 1.7 & AOD 2 21 Nov 20:38:29 20:42:28 42° 262° (W) 20:46:30 437.475
FUNcube-1 21 Nov 20:39:36 20:43:09 26° 69° (ENE) 20:46:40 145.935
PHONESAT 2.4 21 Nov 20:40:38 20:44:16 53° 197° (SSW) 20:47:53 2401.200-2431.200
CUBEBUG 2 21 Nov 20:42:39 20:46:41 39° 72° (ENE) 20:50:37 437.445
UKube-1 21 Nov 20:43:35 20:47:54 67° 74° (ENE) 20:52:15 .
50 SAT 21 Nov 20:44:59 20:47:21 15° 65° (ENE) 20:49:43 437.505
UWE-3 21 Nov 20:52:56 20:57:01 44° 73° (ENE) 21:01:01 435.000/436.395/437.385
Oscar 11 21 Nov 20:58:40 21:02:58 79° 258° (WSW) 21:07:18 145.826/435.025
DOVE 4 21 Nov 21:01:41 21:06:20 49° 260° (W) 21:10:43 437.250
ESTCUBE 1 21 Nov 21:06:30 21:09:01 15° 63° (ENE) 21:11:32 437.505/2401.250
HO-68 21 Nov 21:08:43 21:15:00 33° 264° (W) 21:21:21 435.675
VERMONT LUNAR 21 Nov 21:11:35 21:14:47 29° 205° (SSW) 21:17:58 437.305
DX 1 21 Nov 21:14:22 21:18:40 54° 259° (W) 21:22:59 434.975-435.025
SEEDS 21 Nov 21:19:04 21:21:56 18° 267° (W) 21:24:49 437.485
GOMX 1 21 Nov 21:22:28 21:26:30 25° 265° (W) 21:30:20 467.674
VELOX 1 21 Nov 21:22:53 21:27:16 55° 73° (ENE) 21:31:39 145.980
BRITE-PL 21 Nov 21:27:28 21:30:56 18° 267° (W) 21:34:16 437.365/2234.400
BEESAT 3 21 Nov 21:35:28 21:39:30 57° 305° (NW) 21:43:37 437.485
ZACube-1 21 Nov 21:38:38 21:42:53 65° 259° (W) 21:47:04 437.345
AIST 1 21 Nov 21:40:03 21:40:52 10° 293° (WNW) 21:41:40
POPSAT HIP 1 21 Nov 21:40:54 21:41:40 10° 90° (E) 21:42:26 437.405
AISAT 21 Nov 21:46:00 21:50:30 82° 257° (WSW) 21:55:01 437.250
BEESAT 2 21 Nov 21:47:02 21:51:01 48° 307° (NW) 21:55:06 435.950
AAUSAT CUBESAT 2 21 Nov 21:47:07 21:48:40 12° 270° (W) 21:50:13 437.432
BUGSAT 1 21 Nov 21:52:08 21:53:27 11° 90° (E) 21:54:45 437.445
TIGRISAT 21 Nov 21:54:43 21:58:16 24° 95° (E) 22:01:52 435.000
HUMSAT D 21 Nov 21:57:44 22:01:52 65° 259° (W) 22:05:59 437.325/437.525
AIST 2 21 Nov 22:00:04 22:04:17 71° 303° (WNW) 22:08:35 435.215
UNISAT 6 21 Nov 22:05:21 22:09:18 32° 97° (E) 22:13:18 437.425
PCSat 21 Nov 22:09:00 22:12:58 20° 315° (NW) 22:16:59 145.827
POLYITAN 1 21 Nov 22:09:10 22:12:34 23° 95° (E) 22:15:57 437.675
GONETS M04 21 Nov 22:11:01 22:14:38 13° 286° (WNW) 22:18:16
QB50P2 21 Nov 22:13:03 22:16:36 26° 96° (E) 22:20:08 145.880/145.840
CINEMA 3 21 Nov 22:15:39 22:17:53 14° 268° (W) 22:20:04 145.822/145.860
FUNcube-1 21 Nov 22:15:55 22:19:27 25° 264° (W) 22:22:58 145.935
DELFI C3 21 Nov 22:15:59 22:17:45 13° 269° (W) 22:19:31 145.870
CUBEBUG 1 21 Nov 22:16:50 22:21:16 75° 75° (ENE) 22:25:44 437.445
50 SAT 21 Nov 22:18:28 22:22:20 43° 261° (W) 22:26:12 437.505
PHONESAT 2.4 21 Nov 22:20:15 22:22:36 16° 212° (SSW) 22:24:57 2401.200-2431.200
CUBEBUG 2 21 Nov 22:20:38 22:23:32 17° 267° (W) 22:26:24 437.445
DUCHIFAT 1 21 Nov 22:22:05 22:25:52 32° 97° (E) 22:29:38 145.980
UKube-1 21 Nov 22:23:31 22:24:30 11° 270° (W) 22:25:30 .
SPROUT 21 Nov 22:25:26 22:28:38 21° 67° (ENE) 22:31:50 437.525
TISAT 1 21 Nov 22:30:01 22:33:35 26° 68° (ENE) 22:37:09 437.305
UWE-3 21 Nov 22:31:13 22:33:46 15° 268° (W) 22:36:18 435.000/436.395/437.385
ANTELSAT 21 Nov 22:33:12 22:37:35 65° 101° (ESE) 22:42:03 437.575/2403.000
NANOSAT C BR1 21 Nov 22:40:26 22:44:34 52° 100° (E) 22:48:41 145.865
ESTCUBE 1 21 Nov 22:40:55 22:45:24 58° 259° (W) 22:49:55 437.505/2401.250
RS-15 21 Nov 22:49:22 22:57:58 25° 22° (NNE) 23:06:46 29.354- 29.394
QB50P1 21 Nov 22:49:37 22:53:50 68° 102° (ESE) 22:58:01 145.935-145.965
AUBIESAT-1 21 Nov 22:57:28 23:00:10 18° 58° (ENE) 23:03:01 437.475
SWISSCUBE 21 Nov 22:58:37 22:59:06 10° 59° (ENE) 22:59:35 437.505
M-CUBED/EXP-1 PRIME 21 Nov 22:59:04 23:01:58 20° 59° (ENE) 23:05:04 437.505
VELOX 1 21 Nov 23:01:52 23:04:11 14° 269° (W) 23:06:30 145.980
POPSAT HIP 1 21 Nov 23:13:48 23:18:00 64° 285° (WNW) 23:22:09 437.405
BUGSAT 1 21 Nov 23:25:17 23:29:19 55° 286° (WNW) 23:33:17 437.445
BEESAT 21 Nov 23:27:36 23:30:54 19° 64° (ENE) 23:34:13 436.000
TIGRISAT 21 Nov 23:31:11 23:35:01 31° 290° (WNW) 23:38:55 435.000
UNISAT 6 21 Nov 23:42:27 23:45:57 24° 292° (WNW) 23:49:31 437.425
AIST 2 21 Nov 23:42:32 23:43:44 11° 323° (NW) 23:44:56 435.215
POLYITAN 1 21 Nov 23:44:52 23:48:31 29° 291° (WNW) 23:52:09 437.675
QB50P2 21 Nov 23:48:56 23:52:28 26° 292° (WNW) 23:55:59 145.880/145.840
DUCHIFAT 1 21 Nov 23:58:21 00:01:34 22° 293° (WNW) 00:04:46 145.980
SPROUT 22 Nov 00:00:31 00:04:30 35° 263° (W) 00:08:29 437.525
CUSAT 1 22 Nov 00:02:01 00:06:09 61° 80° (E) 00:11:43 437.405
TISAT 1 22 Nov 00:05:43 00:09:21 27° 264° (W) 00:12:59 437.305
DANDE 22 Nov 00:07:25 00:11:22 57° 80° (E) 00:16:42 436.750
ANTELSAT 22 Nov 00:11:57 00:13:53 13° 297° (WNW) 00:15:50 437.575/2403.000
ISS 22 Nov 00:13:03 00:15:52 26° 135° (SE) 00:18:41 145.825
NANOSAT C BR1 22 Nov 00:17:49 00:20:01 14° 296° (WNW) 00:22:13 145.865
ITUPSAT 1 22 Nov 00:18:39 00:23:21 58° 73° (ENE) 00:28:06 437.325
QB50P1 22 Nov 00:27:52 00:29:10 11° 298° (WNW) 00:30:27 145.935-145.965
AUBIESAT-1 22 Nov 00:31:07 00:34:48 41° 257° (WSW) 00:38:50 437.475
SWISSCUBE 22 Nov 00:31:22 00:36:10 85° 76° (ENE) 00:41:01 437.505
M-CUBED/EXP-1 PRIME 22 Nov 00:33:11 00:36:45 36° 259° (WSW) 00:40:40 437.505
STARS 22 Nov 00:39:25 00:41:37 14° 63° (ENE) 00:43:48 437.465
RS-15 22 Nov 01:02:07 01:13:13 62° 51° (NE) 01:24:46 29.354- 29.394
BEESAT 22 Nov 01:03:45 01:08:22 49° 260° (W) 01:13:02 436.000
Oscar 19 22 Nov 01:05:10 01:10:03 42° 98° (E) 01:14:56 437.125/150
KKS-1 22 Nov 01:08:02 01:12:10 39° 71° (ENE) 01:16:19 437.445
YUBILEINY 22 Nov 01:27:40 01:34:19 25° 81° (E) 01:40:55 435.215
CUSAT 1 22 Nov 01:47:16 01:49:13 13° 268° (W) 01:51:23 437.405
ITAMSAT 1 22 Nov 01:48:01 01:52:54 41° 98° (E) 01:57:44 435.822/435.867
ISS 22 Nov 01:49:20 01:52:25 37° 332° (NNW) 01:55:32 145.825
DANDE 22 Nov 01:52:59 01:54:48 12° 267° (W) 01:56:49 436.750
Gurwin Techsat 1B 22 Nov 01:53:42 01:58:11 27° 95° (E) 02:02:37 435.225
MaSat-1 22 Nov 01:56:44 01:58:42 24° 249° (WSW) 02:00:44 437.345
ITUPSAT 1 22 Nov 01:58:53 02:01:36 15° 269° (W) 02:04:21 437.325
STARS 22 Nov 02:13:14 02:17:36 60° 259° (W) 02:21:58 437.465
HORYU 2 22 Nov 02:14:57 02:17:52 17° 93° (E) 02:20:47 437.375
Oscar 19 22 Nov 02:45:03 02:49:08 24° 295° (WNW) 02:53:13 437.125/150
KKS-1 22 Nov 02:45:45 02:48:57 19° 266° (W) 02:52:10 437.445
SO-50 22 Nov 03:14:32 03:15:54 11° 107° (ESE) 03:17:18 436.795
RS-15 22 Nov 03:15:01 03:25:07 40° 252° (WSW) 03:35:37 29.354- 29.394
MOZHAYETS 4 22 Nov 03:17:15 03:20:59 25° 67° (ENE) 03:24:44
YUBILEINY 22 Nov 03:21:28 03:30:15 70° 280° (W) 03:39:03 435.215
ISS 22 Nov 03:27:52 03:29:47 14° 351° (N) 03:31:42 145.825
ITAMSAT 1 22 Nov 03:27:59 03:32:09 25° 295° (WNW) 03:36:18 435.822/435.867
PCSat 22 Nov 03:31:06 03:32:24 11° 35° (NE) 03:33:42 145.827
Gurwin Techsat 1B 22 Nov 03:33:20 03:38:12 38° 291° (WNW) 03:43:04 435.225
AO-7 22 Nov 03:35:27 03:43:12 40° 99° (E) 03:50:53 29.400- 29.500
HORYU 2 22 Nov 03:50:29 03:54:46 45° 289° (WNW) 03:59:02 437.375
JAS-2 22 Nov 03:50:56 03:55:18 17° 85° (E) 03:59:22 435.910
BEESAT 3 22 Nov 04:19:09 04:20:51 12° 39° (NE) 04:22:33 437.485
PRISM 22 Nov 04:30:08 04:33:43 28° 69° (ENE) 04:37:21 437.425
BEESAT 2 22 Nov 04:30:30 04:32:44 14° 40° (NE) 04:34:57 435.950
AIST 2 22 Nov 04:45:49 04:47:12 11° 37° (NE) 04:48:35 435.215
CUBESAT XI-V 22 Nov 04:46:47 04:49:48 17° 64° (ENE) 04:52:49 437.345
SO-50 22 Nov 04:51:14 04:55:44 77° 304° (WNW) 05:00:25 436.795
MOZHAYETS 4 22 Nov 04:53:58 04:58:03 32° 264° (W) 05:02:12
ISS 22 Nov 05:05:23 05:07:28 16° 12° (NNE) 05:09:33 145.825
STRAND 1 22 Nov 05:07:32 05:11:57 30° 67° (ENE) 05:16:22 437.568
PCSat 22 Nov 05:11:47 05:17:06 53° 56° (ENE) 05:22:23 145.827
YUBILEINY 22 Nov 05:24:40 05:28:51 14° 302° (WNW) 05:33:03 435.215
AO-7 22 Nov 05:28:10 05:36:02 48° 297° (WNW) 05:43:53 29.400- 29.500
Cubesat XI-IV 22 Nov 05:32:13 05:36:46 28° 95° (E) 05:41:16 437.490
JAS-2 22 Nov 05:33:57 05:41:20 83° 286° (WNW) 05:47:49 435.910
BEESAT 3 22 Nov 05:55:33 05:59:46 85° 57° (ENE) 06:03:55 437.485
PRISM 22 Nov 06:05:51 06:09:15 24° 265° (W) 06:12:42 437.425
AIST 1 22 Nov 06:06:52 06:09:52 18° 71° (ENE) 06:12:51
BEESAT 2 22 Nov 06:07:21 06:11:35 81° 239° (WSW) 06:15:45 435.950
CUTE-I 22 Nov 06:14:23 06:19:42 68° 102° (ESE) 06:24:58 437.470
O/OREOS (USA 219) 22 Nov 06:19:46 06:24:09 53° 108° (ESE) 06:28:31 437.305
CUBESAT XI-V 22 Nov 06:22:12 06:26:48 53° 260° (W) 06:31:26 437.345
AIST 2 22 Nov 06:22:19 06:26:38 73° 57° (ENE) 06:30:52 435.215
SO-50 22 Nov 06:34:55 06:37:07 13° 324° (NW) 06:39:21 436.795
ISS 22 Nov 06:41:32 06:44:45 47° 31° (NNE) 06:47:57 145.825
STRAND 1 22 Nov 06:46:24 06:51:01 33° 263° (W) 06:55:41 437.568
PCSat 22 Nov 06:56:05 07:00:06 21° 254° (WSW) 07:04:05 145.827
Cubesat XI-IV 22 Nov 07:12:02 07:16:53 37° 292° (WNW) 07:21:43 437.490
GONETS M04 22 Nov 07:16:38 07:23:36 27° 82° (E) 07:30:35
JAS-2 22 Nov 07:20:51 07:25:05 17° 306° (NW) 07:29:06 435.910
AO-7 22 Nov 07:25:05 07:26:45 11° 319° (NW) 07:28:25 29.400- 29.500
AIST 1 22 Nov 07:43:37 07:47:42 38° 268° (W) 07:51:45
CANX-2 22 Nov 07:50:07 07:52:30 15° 91° (E) 07:54:52 2200.000
BRITE-PL 22 Nov 07:54:09 07:56:02 13° 91° (E) 07:57:55 437.365/2234.400
CUTE-I 22 Nov 07:55:56 07:59:11 17° 299° (WNW) 08:02:25 437.470
O/OREOS (USA 219) 22 Nov 08:01:01 08:03:53 17° 306° (NW) 08:06:45 437.305
AIST 2 22 Nov 08:03:34 08:04:38 11° 253° (WSW) 08:05:41 435.215
COMPASS 1 22 Nov 08:06:05 08:08:27 15° 91° (E) 08:10:48 437.405
ISS 22 Nov 08:18:41 08:21:11 20° 227° (SW) 08:23:41 145.825
CUTE 1.7 & AOD 2 22 Nov 08:24:11 08:28:01 32° 97° (E) 08:31:51 437.475
CINEMA 3 22 Nov 08:33:18 08:34:42 11° 91° (E) 08:36:05 145.822/145.860
UKube-1 22 Nov 08:34:14 08:35:32 11° 90° (E) 08:36:50 .
HO-68 22 Nov 08:35:22 08:42:20 50° 101° (E) 08:49:14 435.675
Oscar 11 22 Nov 08:47:12 08:50:19 19° 93° (E) 08:53:24 145.826/435.025
TIGRISAT 22 Nov 08:54:20 08:57:32 21° 67° (ENE) 09:00:45 435.000
DOVE 4 22 Nov 09:01:06 09:05:01 39° 98° (E) 09:08:59 437.250
SEEDS 22 Nov 09:02:23 09:06:40 76° 102° (ESE) 09:10:56 437.485
POLYITAN 1 22 Nov 09:03:12 09:06:14 19° 66° (ENE) 09:09:16 437.675
DX 1 22 Nov 09:03:32 09:07:08 25° 96° (E) 09:10:43 434.975-435.025
UNISAT 6 22 Nov 09:05:04 09:08:42 28° 69° (ENE) 09:12:20 437.425
QB50P2 22 Nov 09:06:47 09:09:59 21° 67° (ENE) 09:13:11 145.880/145.840
GONETS M04 22 Nov 09:10:59 09:19:40 65° 281° (W) 09:28:29
DUCHIFAT 1 22 Nov 09:15:18 09:18:48 25° 68° (ENE) 09:22:17 145.980
VELOX 1 22 Nov 09:17:09 09:17:49 10° 89° (E) 09:18:29 145.980
GOMX 1 22 Nov 09:23:32 09:27:42 82° 284° (WNW) 09:31:53 467.674
CANX-2 22 Nov 09:24:34 09:28:42 48° 287° (WNW) 09:32:49 2200.000
AAUSAT CUBESAT 2 22 Nov 09:27:54 09:32:07 74° 284° (WNW) 09:36:20 437.432
ZACube-1 22 Nov 09:28:11 09:31:32 23° 95° (E) 09:34:54 437.345
BRITE-PL 22 Nov 09:30:53 09:34:54 47° 287° (WNW) 09:38:52 437.365/2234.400
ANTELSAT 22 Nov 09:32:38 09:36:50 56° 74° (ENE) 09:41:01 437.575/2403.000
NANOSAT C BR1 22 Nov 09:33:25 09:37:24 39° 71° (ENE) 09:41:23 145.865
AISAT 22 Nov 09:38:29 09:41:41 19° 94° (E) 09:44:51 437.250
COMPASS 1 22 Nov 09:40:22 09:44:26 47° 287° (WNW) 09:48:30 437.405
QB50P1 22 Nov 09:42:32 09:46:40 50° 73° (ENE) 09:50:48 145.935-145.965
HUMSAT D 22 Nov 09:43:22 09:46:27 20° 94° (E) 09:49:33 437.325/437.525
DELFI C3 22 Nov 09:54:21 09:58:31 87° 284° (WNW) 10:02:39 145.870
50 SAT 22 Nov 10:00:00 10:03:23 25° 96° (E) 10:06:45 437.505
CUTE 1.7 & AOD 2 22 Nov 10:00:27 10:03:47 22° 292° (WNW) 10:07:06 437.475
FUNcube-1 22 Nov 10:03:50 10:07:58 57° 100° (E) 10:12:10 145.935
POPSAT HIP 1 22 Nov 10:06:36 10:10:53 86° 257° (WSW) 10:15:10 437.405
UKube-1 22 Nov 10:07:48 10:12:07 64° 286° (WNW) 10:16:23 .
CUBEBUG 1 22 Nov 10:07:58 10:10:15 14° 91° (E) 10:12:30 437.445
CINEMA 3 22 Nov 10:08:09 10:12:15 57° 286° (WNW) 10:16:26 145.822/145.860
CUBEBUG 2 22 Nov 10:10:13 10:14:26 87° 283° (WNW) 10:18:44 437.445
BUGSAT 1 22 Nov 10:15:06 10:19:23 83° 257° (WSW) 10:23:40 437.445
UWE-3 22 Nov 10:19:17 10:23:30 80° 284° (WNW) 10:27:47 435.000/436.395/437.385
Oscar 11 22 Nov 10:22:35 10:26:36 37° 289° (WNW) 10:30:36 145.826/435.025
HO-68 22 Nov 10:23:33 10:29:45 33° 298° (WNW) 10:35:54 435.675
TIGRISAT 22 Nov 10:30:14 10:34:07 33° 263° (W) 10:37:59 435.000
ESTCUBE 1 22 Nov 10:34:24 10:38:22 29° 96° (E) 10:42:19 437.505/2401.250
POLYITAN 1 22 Nov 10:37:58 10:41:56 37° 262° (W) 10:45:55 437.675
DX 1 22 Nov 10:39:36 10:43:21 29° 292° (WNW) 10:47:04 434.975-435.025
DOVE 4 22 Nov 10:39:52 10:42:32 17° 294° (WNW) 10:45:12 437.250
SEEDS 22 Nov 10:41:14 10:41:53 10° 298° (WNW) 10:42:31 437.485
QB50P2 22 Nov 10:41:49 10:45:42 34° 263° (W) 10:49:36 145.880/145.840
UNISAT 6 22 Nov 10:41:57 10:45:29 25° 265° (W) 10:49:00 437.425
VELOX 1 22 Nov 10:50:28 10:54:53 70° 285° (WNW) 10:59:16 145.980
DUCHIFAT 1 22 Nov 10:50:54 10:54:34 28° 264° (W) 10:58:15 145.980
ZACube-1 22 Nov 11:04:16 11:07:55 29° 290° (WNW) 11:11:37 437.345
NANOSAT C BR1 22 Nov 11:10:35 11:13:26 17° 267° (W) 11:16:19 145.865
ANTELSAT 22 Nov 11:12:16 11:14:00 12° 269° (W) 11:15:44 437.575/2403.000
AISAT 22 Nov 11:14:21 11:18:28 38° 290° (WNW) 11:22:32 437.250
GONETS M04 22 Nov 11:15:05 11:18:31 13° 304° (NW) 11:21:59
HUMSAT D 22 Nov 11:18:37 11:22:20 32° 289° (WNW) 11:26:04 437.325/437.525
QB50P1 22 Nov 11:20:38 11:22:51 14° 269° (W) 11:25:04 145.935-145.965
SHINDAISAT 22 Nov 11:35:09 11:36:10 13° 309° (NW) 11:37:12 437.305
50 SAT 22 Nov 11:35:18 11:38:38 25° 291° (WNW) 11:41:58 437.505
YUBILEINY 22 Nov 11:39:23 11:41:31 11° 55° (NE) 11:43:39 435.215
FUNcube-1 22 Nov 11:41:58 11:43:53 13° 296° (WNW) 11:45:48 145.935
CUBEBUG 1 22 Nov 11:42:41 11:46:56 51° 287° (WNW) 11:51:09 437.445
SO-50 22 Nov 11:43:30 11:46:29 16° 39° (NE) 11:49:28 436.795
SPROUT 22 Nov 11:47:24 11:51:24 38° 98° (E) 11:55:23 437.525
TISAT 1 22 Nov 11:50:26 11:54:31 47° 99° (E) 11:58:34 437.305
ESTCUBE 1 22 Nov 12:11:20 12:15:09 27° 292° (WNW) 12:18:57 437.505/2401.250
AUBIESAT-1 22 Nov 12:14:25 12:17:43 18° 97° (E) 12:21:00 437.475
M-CUBED/EXP-1 PRIME 22 Nov 12:16:25 12:20:05 21° 98° (E) 12:23:43 437.505
ITUPSAT 1 22 Nov 12:21:04 12:23:51 15° 91° (E) 12:26:36 437.325
Oscar 19 22 Nov 12:21:54 12:26:55 60° 73° (ENE) 12:31:57 437.125/150
